[[{"header":{"parameterUnit":"m.s-1","parameterCategory":1,"la1":30.2991,"la2":30.254,"lo1":-89.0895,"lo2":-89.0444,"dy":0.0017,"dx":0.0017,"nx":28,"ny":28,"refTime":"2024-12-26T03:00:00:Z","depth":0,"parameterNumber":2,"parameterNumberName":"U-component_of_WINDS"},"data":[0,0,0,0,0,0,0,0,0,0,0,0,0,0,0,0,0,0,0,0,0,0,0,0,0,0,0,0,0,0,0,0,0,0,0,0,0,0,0,0,0,0,0,0,0,0,0,0,0,0,0,0,0,0,0,0,0,0,-6.6945,-6.6945,0,-6.6942,-6.6942,-6.6942,-6.676,-6.6755,-6.6751,-6.6746,-6.6743,-6.6747,-6.6752,0,0,0,0,0,0,0,0,0,0,0,0,0,-6.6795,-6.6799,-6.6945,-6.6945,-6.6945,-6.6942,-6.6942,-6.6942,-6.6761,-6.6755,-6.6749,-6.6744,-6.6742,-6.6747,-6.6752,0,0,0,0,0,0,0,0,0,0,0,0,0,-6.6833,-6.68,-6.6945,-6.6855,-6.6846,-6.6942,-6.6942,-6.6942,-6.6762,-6.6755,-6.6748,-6.6741,-6.674,-6.6746,-6.6753,-6.6935,0,0,-6.6772,-6.6775,0,0,0,0,0,0,0,0,-6.6831,-6.6839,-6.6868,-6.6861,-6.6852,-6.6844,-6.6887,-6.694,-6.6764,-6.6794,-6.6746,-6.6738,-6.6782,-6.6785,-6.68,-6.6935,-6.6934,-6.6773,-6.6777,-6.678,-6.6782,0,0,0,0,0,0,0,-6.6829,-6.6838,-6.6944,-6.6869,-6.6859,-6.6814,-6.6812,-6.6897,-6.6828,-6.6791,-6.6778,-6.678,-6.6777,-6.6794,-6.6799,-6.6934,-6.6773,-6.6779,-6.6783,-6.6785,-6.7218,-6.7225,0,0,0,0,0,0,-6.6839,-6.6837,-6.6944,-6.6944,-6.6824,-6.6823,-6.682,-6.6854,-6.6827,-6.6816,-6.6786,-6.6771,-6.6787,-6.6791,-6.6798,-6.7008,-6.678,-6.6786,-6.679,-6.721,-6.722,-6.7228,0,0,0,0,0,0,-6.6836,-6.685,-6.6944,-6.6887,-6.6895,-6.6833,-6.6872,-6.6858,-6.6875,-6.6823,-6.681,-6.6816,-6.6781,-6.6789,-6.6902,-6.7005,-6.6789,-6.6795,-6.7201,-6.7213,-6.7224,-6.7432,0,0,0,0,0,0,-6.6833,-6.685,-6.6918,-6.689,-6.6899,-6.7049,-6.6879,-6.6863,-6.6886,-6.6867,-6.6848,-6.6838,-6.6776,-6.6893,-6.6908,-6.701,-6.68,-6.7192,-6.7207,-6.722,-6.7415,-6.7449,-6.7477,0,0,0,0,0,-6.6828,-6.6977,-6.6923,-6.6937,-6.6983,-6.7055,-6.706,-6.6986,-6.6896,-6.6964,-6.693,-6.6838,-6.6993,-6.6906,-6.6922,-6.7028,-6.7185,-6.7202,-6.7219,-6.7401,-6.7442,-6.7477,0,0,0,0,0,0,-6.7019,-6.6972,-6.6911,-6.7055,-6.7061,-6.7024,-6.7108,-6.7032,-6.7063,-6.7044,-6.6951,-6.6948,-6.7076,-6.7063,-6.6968,-6.7202,-6.7072,-6.7093,-6.7206,-6.7244,-6.7275,-6.7274,-6.6805,0,0,0,0,0,-6.7078,-6.7141,-6.7096,-6.7228,-6.7233,-6.7171,-6.7199,-6.7142,-6.7144,-6.7145,-6.712,-6.7125,-6.7174,-6.7209,-6.7251,-6.7413,-6.7406,-6.7494,-6.7525,-6.7551,-6.7569,-6.7653,-6.7691,-6.7284,-6.7284,-6.7283,0,0,-6.7201,-6.7183,-6.7227,-6.7266,-6.7263,-6.7329,-6.7174,-6.7251,-6.7299,-6.7156,-6.7261,-6.7244,-6.7244,-6.7382,-6.7442,-6.7375,-6.7681,-6.7572,-6.7593,-6.7598,-6.7675,-6.7714,-6.7748,-6.7296,-6.7293,-6.7292,0,0,-6.7457,-6.7451,-6.7559,-6.756,-6.7558,-6.7516,-6.7543,-6.7518,-6.7501,-6.7605,-6.75,-6.7556,-6.7643,-6.7647,-6.7661,-6.7921,-6.7837,-6.7938,-6.81,-6.8183,-6.8215,-6.8243,-6.8335,-6.8369,-6.7957,-6.7958,-6.7958,0,-6.7609,-6.7705,-6.7624,-6.7709,-6.7728,-6.7604,-6.7713,-6.7718,-6.773,-6.7747,-6.7673,-6.7779,-6.7771,-6.7908,-6.7971,-6.7987,-6.8014,-6.7938,-6.8217,-6.8244,-6.8269,-6.8355,-6.839,-6.797,-6.7968,-6.7967,-6.7966,0,-6.7892,-6.796,-6.8048,-6.8064,-6.8094,-6.819,-6.8124,-6.8165,-6.8106,-6.8072,-6.8179,-6.8165,-6.8202,-6.8231,-6.8174,-6.8361,-6.8319,-6.8233,-6.81,-6.8321,-6.8401,-6.8433,-6.7987,-6.7983,-6.7979,-6.7976,0,0,-6.8266,-6.8237,-6.827,-6.8276,-6.8266,-6.8317,-6.8409,-6.8445,-6.8481,-6.8495,-6.8568,-6.8646,-6.8566,-6.8582,-6.8524,-6.8598,-6.8804,-6.8502,-6.85,-6.8557,-6.9008,-6.9072,-6.9111,-6.875,-6.8756,-6.876,-6.9007,0,-6.8512,-6.8666,-6.8597,-6.8758,-6.882,-6.8704,-6.8783,-6.8786,-6.8757,-6.8805,-6.8773,-6.8829,-6.872,-6.8729,-6.8796,-6.8765,-6.8893,-6.8746,-6.8816,-6.882,-6.8818,-6.9153,-6.922,-6.9454,-6.9038,-6.9043,-6.9047,0,-6.882,-6.8847,-6.9014,-6.8994,-6.9017,-6.909,-6.9118,-6.9166,-6.9167,-6.9141,-6.916,-6.9086,-6.9174,-6.9045,-6.9164,-6.9066,-6.9091,-6.9081,-6.9088,-6.9089,-6.8945,-6.9162,-6.9526,-6.9561,-6.9096,-6.9092,-6.9088,0,-6.9074,-6.9152,-6.9262,-6.9271,-6.925,-6.9304,-6.9298,-6.9292,-6.9318,-6.9344,-6.936,-6.9396,-6.9415,-6.9445,-6.9383,-6.9294,-6.9511,-6.9376,-6.9491,-6.9493,-6.9539,-6.9537,-6.9911,-6.956,-6.956,-6.9559,-6.9558,0,-6.9355,-6.9462,-6.9376,-6.9444,-6.956,-6.9481,-6.9598,-6.9579,-6.9575,-6.9637,-6.9539,-6.9599,-6.9515,-6.9567,-6.952,-6.9626,-6.9636,-6.9616,-6.9602,-6.9624,-6.9626,-6.9637,-6.9618,-6.9568,-6.9566,-6.9564,-6.9563,0,-6.9657,-6.9604,-6.9716,-6.9688,-6.9683,-6.977,-6.9746,-6.9807,-6.9773,-6.9852,-6.9866,-6.9812,-6.9869,-6.9811,-6.9863,-6.9831,-6.9973,-6.9936,-6.9973,-6.9961,-7.0079,-7.0068,-7.0471,-7.0519,-7.014,-7.0144,-7.0147,0,-6.9838,-6.9917,-6.9899,-6.9933,-6.9933,-6.999,-7.0017,-6.9943,-6.9975,-6.9984,-7.0044,-7.0093,-7.0127,-7.0223,-7.0188,-7.0228,-7.0189,-7.0328,-7.0194,-7.0214,-7.0189,-7.0184,-7.0191,-7.0355,-7.0359,-7.0363,-7.0366,0,-7.0166,-7.0136,-7.0179,-7.0214,-7.0249,-7.0273,-7.0288,-7.0323,-7.0246,-7.0288,-7.0344,-7.0371,-7.0425,-7.0474,-7.0504,-7.0497,-7.0419,-7.0409,-7.0437,-7.0459,-7.0476,-7.0466,-7.0045,-7.0399,-7.0396,-7.0393,-7.0391,-7.039,-7.0411,-7.0476,-7.0473,-7.0524,-7.0529,-7.0547,-7.0603,-7.0576,-7.0622,-7.066,-7.0615,-7.0684,-7.0684,-7.0716,-7.0719,-7.0773,-7.0713,-7.0755,-7.0765,-7.0776,-7.0792,-7.047,-7.0778,-7.0777,-7.0776,-7.0775,-7.0774,0,-7.0731,-7.0724,-7.0772,-7.0798,-7.0839,-7.0764,-7.0778,-7.0817,-7.088,-7.0887,-7.0923,-7.0989,-7.1036,-7.1007,-7.1047,-7.1095,-7.1061,-7.1108,-7.1103,-7.1102,-7.0844,-7.0814,-7.1136,-7.1136,-7.1136,-7.1136,-7.1136,-7.1135,-7.0902,-7.1008,-7.0979,-7.1086,-7.1078,-7.1146,-7.116,-7.1177,-7.1181,-7.1259,-7.1299,-7.1279,-7.1272,-7.1311,-7.1352,-7.1341,-7.136,-7.142,-7.1398,-7.1156,-7.112,-7.1086,-7.1058,-7.1426,-7.1426,-7.1651,-7.1653,-7.1655]},{"header":{"parameterUnit":"m.s-1","parameterCategory":1,"la1":30.2991,"la2":30.254,"lo1":-89.0895,"lo2":-89.0444,"dy":0.0017,"dx":0.0017,"nx":28,"ny":28,"refTime":"2024-12-26T03:00:00:Z","depth":0,"parameterNumber":3,"parameterNumberName":"V-component_of_WINDS"},"data":[0,0,0,0,0,0,0,0,0,0,0,0,0,0,0,0,0,0,0,0,0,0,0,0,0,0,0,0,0,0,0,0,0,0,0,0,0,0,0,0,0,0,0,0,0,0,0,0,0,0,0,0,0,0,0,0,0,0,0.1301,0.1301,0,0.1388,0.1389,0.139,0.1475,0.1476,0.1477,0.1478,0.1562,0.1563,0.1564,0,0,0,0,0,0,0,0,0,0,0,0,0,0.1204,0.1205,0.13,0.1302,0.1303,0.1387,0.1389,0.139,0.1475,0.1476,0.1477,0.1479,0.1562,0.1563,0.1564,0,0,0,0,0,0,0,0,0,0,0,0,0,0.1264,0.1206,0.13,0.1355,0.1361,0.1387,0.1389,0.139,0.1474,0.1476,0.1478,0.1479,0.1561,0.1563,0.1565,0.1542,0,0,0.157,0.1571,0,0,0,0,0,0,0,0,0.126,0.1267,0.1346,0.1352,0.1358,0.1422,0.1386,0.1441,0.1474,0.1431,0.1478,0.148,0.1514,0.152,0.1532,0.1546,0.1549,0.157,0.1571,0.1572,0.1573,0,0,0,0,0,0,0,0.1256,0.1264,0.1335,0.1347,0.1354,0.1374,0.1385,0.1396,0.1462,0.1435,0.1441,0.1451,0.1517,0.153,0.1535,0.1551,0.157,0.1572,0.1573,0.1574,0.1551,0.155,0,0,0,0,0,0,0.1244,0.126,0.1332,0.1337,0.1313,0.1375,0.1386,0.14,0.1462,0.1473,0.1449,0.1454,0.1526,0.1532,0.1538,0.1516,0.1572,0.1574,0.1575,0.1553,0.1551,0.1549,0,0,0,0,0,0,0.1242,0.125,0.1329,0.1301,0.1312,0.1375,0.1389,0.1401,0.1414,0.1473,0.1484,0.1451,0.1528,0.1535,0.1541,0.152,0.1575,0.1576,0.1555,0.1552,0.155,0.1472,0,0,0,0,0,0,0.1239,0.1248,0.1241,0.13,0.1313,0.1331,0.1388,0.1401,0.1417,0.1425,0.1477,0.1487,0.153,0.1538,0.1543,0.1524,0.1578,0.1557,0.1554,0.1551,0.1477,0.1467,0.1459,0,0,0,0,0,0.1235,0.1214,0.124,0.1248,0.1306,0.133,0.1337,0.1388,0.1415,0.1408,0.1446,0.1486,0.1522,0.1538,0.1544,0.1525,0.1558,0.1555,0.1551,0.1481,0.1469,0.1459,0,0,0,0,0,0,0.1149,0.1223,0.1253,0.1251,0.1284,0.1344,0.1336,0.1374,0.1398,0.1404,0.1464,0.1475,0.1474,0.15,0.1516,0.1507,0.1546,0.1543,0.149,0.148,0.1471,0.1465,0.1579,0,0,0,0,0,0.1131,0.1145,0.1208,0.12,0.1216,0.1273,0.1285,0.1322,0.1357,0.1371,0.141,0.1442,0.1461,0.1471,0.1492,0.1481,0.1494,0.1471,0.1462,0.1455,0.1452,0.1449,0.144,0.1537,0.1537,0.1537,0,0,0.1091,0.1133,0.1139,0.1184,0.1214,0.1227,0.1284,0.1295,0.1305,0.1372,0.1381,0.141,0.145,0.1447,0.1448,0.1469,0.1428,0.145,0.1444,0.1445,0.1444,0.1435,0.1426,0.1534,0.1535,0.1535,0,0,0.1027,0.106,0.1058,0.1087,0.1132,0.1171,0.117,0.1226,0.1248,0.1258,0.131,0.1321,0.1352,0.1379,0.1396,0.1343,0.1381,0.1348,0.1302,0.1298,0.129,0.1284,0.1266,0.1258,0.1345,0.1344,0.1344,0,0.0972,0.0995,0.1052,0.106,0.1079,0.1143,0.1141,0.1166,0.1214,0.1225,0.1248,0.129,0.132,0.1326,0.1313,0.1325,0.1325,0.1342,0.1287,0.1281,0.1276,0.1259,0.1252,0.134,0.1341,0.1341,0.1342,0,0.0926,0.0941,0.0934,0.0982,0.0999,0.1002,0.1058,0.1069,0.1104,0.114,0.1149,0.1189,0.1219,0.1223,0.1256,0.1233,0.1245,0.1276,0.1317,0.1262,0.1247,0.1241,0.1334,0.1336,0.1337,0.1338,0,0,0.0809,0.089,0.0886,0.0909,0.0964,0.0977,0.0982,0.1014,0.1022,0.1053,0.106,0.1085,0.1116,0.1135,0.1172,0.1169,0.1125,0.1202,0.1204,0.1187,0.1103,0.1079,0.107,0.1151,0.115,0.1149,0.11,0,0.0755,0.0771,0.0823,0.0823,0.0838,0.0899,0.0904,0.0938,0.0971,0.0988,0.1024,0.1042,0.1081,0.1093,0.1093,0.1131,0.1109,0.1135,0.1156,0.1156,0.1145,0.1063,0.1037,0.0989,0.1094,0.1093,0.1093,0,0.0693,0.0723,0.0725,0.0781,0.0789,0.0793,0.0827,0.0842,0.0881,0.0906,0.0929,0.0971,0.0979,0.1017,0.1029,0.1046,0.1057,0.1077,0.1077,0.1081,0.1121,0.1065,0.0975,0.0968,0.1084,0.1085,0.1085,0,0.0609,0.0649,0.0656,0.0674,0.0739,0.0741,0.0767,0.0809,0.0825,0.0853,0.0865,0.0893,0.0908,0.0929,0.0977,0.1,0.0984,0.1026,0.1005,0.1003,0.0999,0.0999,0.091,0.1005,0.1005,0.1005,0.1006,0,0.0543,0.0542,0.062,0.0624,0.0625,0.0684,0.0682,0.0715,0.0751,0.0762,0.0816,0.0824,0.0888,0.0903,0.094,0.0946,0.0952,0.0972,0.0982,0.0967,0.0965,0.0976,0.0981,0.1004,0.1004,0.1004,0.1005,0,0.0449,0.0501,0.0513,0.0575,0.059,0.0588,0.064,0.0646,0.0683,0.0696,0.0703,0.0761,0.0782,0.0833,0.0866,0.0892,0.0887,0.0905,0.0874,0.0881,0.0858,0.0859,0.0773,0.0765,0.0865,0.0864,0.0863,0,0.0404,0.0405,0.0467,0.0479,0.0505,0.0523,0.0541,0.0598,0.0614,0.066,0.066,0.0686,0.071,0.0741,0.0786,0.0812,0.0831,0.0799,0.0836,0.0821,0.0832,0.0831,0.0832,0.0791,0.079,0.0789,0.0788,0,0.0318,0.0344,0.0368,0.0401,0.0421,0.0449,0.048,0.0487,0.0552,0.0566,0.059,0.0609,0.0645,0.067,0.0704,0.073,0.0769,0.0776,0.0773,0.0758,0.0741,0.0751,0.0853,0.0778,0.0779,0.078,0.078,0.0781,0.0248,0.0252,0.0297,0.0322,0.0352,0.038,0.039,0.0429,0.045,0.0486,0.0518,0.0539,0.0578,0.0628,0.0652,0.0668,0.0688,0.0683,0.0682,0.068,0.0674,0.0738,0.0674,0.0674,0.0675,0.0675,0.0675,0,0.0166,0.0198,0.0221,0.0264,0.0283,0.0321,0.0357,0.0371,0.0389,0.0424,0.0447,0.0474,0.0499,0.0546,0.0575,0.0579,0.0598,0.0584,0.0585,0.059,0.0654,0.0654,0.0569,0.0569,0.0569,0.0569,0.0569,0.0569,0.0126,0.0136,0.0167,0.0192,0.0224,0.0247,0.0264,0.029,0.0319,0.0348,0.0369,0.04,0.044,0.0472,0.0497,0.051,0.0518,0.0499,0.0517,0.0576,0.0586,0.0595,0.0596,0.05,0.05,0.0453,0.0453,0.0452]}]]